Вернуться в каталог

SL-19 DEB

АктивенUNKNOWN
NORAD 23483·DEBRIS·🇷🇺 Russia

Запущен Dec 26, 1994 с Baikonur Cosmodrome

Loading…

Ближайшие Пролёты (ближайшие 24 часа)

TLE

СвежийSource: Space-Track

Эпоха: Sep 14, 2026, 14:25 UTC

1 23483U 94085F   26257.60134329 -.00000057  00000-0 -44800-3 0  9999
2 23483  64.7260 274.7411 0187777 155.1441 294.6168 11.22867830300536

Отслеживайте SL-19 DEB в реальном времени с AllMySat

Download on the App Store